Time,TemperatureF,DewpointF,PressureIn,WindDirection,WindDirectionDegrees,WindSpeedMPH,WindSpeedGustMPH,Humidity,HourlyPrecipIn,Conditions,Clouds,dailyrainin,SoftwareType,DateUTC
2013-05-22 00:01:00,50.0,49.0,30.00,ENE,60,0.0,-999.0,95,-99.99,,,0.01,weatherlink.com 1.10,2013-05-22 04:01:00,
2013-05-22 00:16:00,50.1,49.0,30.07,East,89,0.0,-999.0,96,-99.99,,,0.01,weatherlink.com 1.10,2013-05-22 04:16:00,
2013-05-22 00:31:00,50.0,49.0,30.06,NW,321,0.0,-999.0,96,-99.99,,,0.01,weatherlink.com 1.10,2013-05-22 04:31:00,
2013-05-22 00:46:00,50.1,49.0,30.00,ENE,67,0.0,-999.0,97,-99.99,,,0.14,weatherlink.com 1.10,2013-05-22 04:46:00,
2013-05-22 01:01:00,50.0,49.0,29.95,SW,234,0.0,-999.0,97,-99.99,,,0.21,weatherlink.com 1.10,2013-05-22 05:01:00,
2013-05-22 01:16:00,50.2,49.0,29.93,SSW,202,0.0,-999.0,97,-99.99,,,0.22,weatherlink.com 1.10,2013-05-22 05:16:00,
2013-05-22 01:31:00,50.3,50.0,29.92,South,181,1.0,-999.0,98,-99.99,,,0.24,weatherlink.com 1.10,2013-05-22 05:31:00,
2013-05-22 01:46:00,50.3,50.0,29.89,ENE,65,0.0,-999.0,97,-99.99,,,0.27,weatherlink.com 1.10,2013-05-22 05:46:00,
2013-05-22 02:01:00,50.3,50.0,29.87,South,169,2.0,-999.0,97,-99.99,,,0.30,weatherlink.com 1.10,2013-05-22 06:01:00,
2013-05-22 02:16:00,49.9,49.0,29.90,NW,317,0.0,-999.0,97,-99.99,,,0.30,weatherlink.com 1.10,2013-05-22 06:16:00,
2013-05-22 02:31:00,50.1,49.0,29.93,South,182,0.0,-999.0,97,-99.99,,,0.31,weatherlink.com 1.10,2013-05-22 06:31:00,
2013-05-22 02:46:00,50.2,50.0,29.94,WNW,292,0.0,-999.0,98,-99.99,,,0.31,weatherlink.com 1.10,2013-05-22 06:46:00,
2013-05-22 03:01:00,50.3,50.0,29.93,WNW,292,0.0,-999.0,98,-99.99,,,0.31,weatherlink.com 1.10,2013-05-22 07:01:00,
2013-05-22 03:16:00,50.6,50.0,29.93,WNW,292,0.0,-999.0,98,-99.99,,,0.31,weatherlink.com 1.10,2013-05-22 07:16:00,
2013-05-22 03:31:00,50.7,50.0,29.99,SSW,198,1.0,-999.0,98,-99.99,,,0.31,weatherlink.com 1.10,2013-05-22 07:31:00,
2013-05-22 03:46:00,50.9,50.0,29.95,SSE,149,0.0,-999.0,98,-99.99,,,0.38,weatherlink.com 1.10,2013-05-22 07:46:00,
2013-05-22 04:01:00,51.0,51.0,29.93,SSW,206,0.0,-999.0,98,-99.99,,,0.46,weatherlink.com 1.10,2013-05-22 08:01:00,
2013-05-22 04:16:00,50.8,50.0,29.92,SSW,206,0.0,-999.0,98,-99.99,,,0.47,weatherlink.com 1.10,2013-05-22 08:16:00,
2013-05-22 04:31:00,50.9,50.0,29.92,SSW,206,0.0,-999.0,98,-99.99,,,0.49,weatherlink.com 1.10,2013-05-22 08:31:00,
2013-05-22 04:46:00,50.8,50.0,29.92,SSW,206,0.0,-999.0,98,-99.99,,,0.51,weatherlink.com 1.10,2013-05-22 08:46:00,
2013-05-22 05:01:00,50.9,50.0,29.90,South,176,0.0,-999.0,98,-99.99,,,0.52,weatherlink.com 1.10,2013-05-22 09:01:00,
2013-05-22 05:16:00,50.9,50.0,29.89,South,176,0.0,-999.0,98,-99.99,,,0.53,weatherlink.com 1.10,2013-05-22 09:16:00,
2013-05-22 05:31:00,50.9,50.0,29.87,South,181,0.0,-999.0,98,-99.99,,,0.53,weatherlink.com 1.10,2013-05-22 09:31:00,
2013-05-22 05:46:00,50.9,50.0,29.87,SW,216,5.0,-999.0,98,-99.99,,,0.53,weatherlink.com 1.10,2013-05-22 09:46:00,
2013-05-22 06:01:00,50.8,50.0,29.89,South,186,3.0,-999.0,98,-99.99,,,0.53,weatherlink.com 1.10,2013-05-22 10:01:00,
2013-05-22 06:16:00,50.9,50.0,29.88,South,179,0.0,-999.0,98,-99.99,,,0.00,weatherlink.com 1.10,2013-05-22 10:16:00,
2013-05-22 06:31:00,51.1,51.0,29.91,South,180,0.0,-999.0,98,-99.99,,,0.00,weatherlink.com 1.10,2013-05-22 10:31:00,
2013-05-22 06:46:00,51.2,51.0,29.91,South,180,0.0,-999.0,98,-99.99,,,0.00,weatherlink.com 1.10,2013-05-22 10:46:00,
2013-05-22 07:01:00,51.6,51.0,29.89,South,180,0.0,-999.0,98,-99.99,,,0.00,weatherlink.com 1.10,2013-05-22 11:01:00,
2013-05-22 07:16:00,51.9,52.0,29.90,South,180,0.0,-999.0,99,-99.99,,,0.00,weatherlink.com 1.10,2013-05-22 11:16:00,
2013-05-22 07:31:00,52.1,52.0,29.89,South,180,0.0,-999.0,99,-99.99,,,0.00,weatherlink.com 1.10,2013-05-22 11:31:00,
2013-05-22 07:46:00,52.2,52.0,29.90,South,180,0.0,-999.0,98,-99.99,,,0.00,weatherlink.com 1.10,2013-05-22 11:46:00,
2013-05-22 08:01:00,52.7,53.0,29.90,South,180,0.0,-999.0,99,-99.99,,,0.00,weatherlink.com 1.10,2013-05-22 12:01:00,
2013-05-22 08:16:00,53.2,53.0,29.90,South,180,0.0,-999.0,99,-99.99,,,0.00,weatherlink.com 1.10,2013-05-22 12:16:00,
2013-05-22 08:31:00,53.4,53.0,29.90,West,261,0.0,-999.0,98,-99.99,,,0.00,weatherlink.com 1.10,2013-05-22 12:31:00,
2013-05-22 08:46:00,53.9,53.0,29.90,West,261,0.0,-999.0,98,-99.99,,,0.00,weatherlink.com 1.10,2013-05-22 12:46:00,
2013-05-22 09:01:00,54.2,54.0,29.91,West,261,1.0,-999.0,98,-99.99,,,0.00,weatherlink.com 1.10,2013-05-22 13:01:00,
2013-05-22 09:16:00,54.4,54.0,29.91,West,261,0.0,-999.0,97,-99.99,,,0.00,weatherlink.com 1.10,2013-05-22 13:16:00,
2013-05-22 09:31:00,55.4,54.0,29.91,West,261,0.0,-999.0,96,-99.99,,,0.00,weatherlink.com 1.10,2013-05-22 13:31:00,
2013-05-22 09:46:00,56.2,55.0,29.91,West,259,1.0,-999.0,95,-99.99,,,0.00,weatherlink.com 1.10,2013-05-22 13:46:00,
2013-05-22 10:02:00,56.9,55.0,29.91,West,259,0.0,-999.0,93,-99.99,,,0.00,weatherlink.com 1.10,2013-05-22 14:02:00,
2013-05-22 10:17:00,57.6,55.0,29.91,West,259,0.0,-999.0,92,-99.99,,,0.00,weatherlink.com 1.10,2013-05-22 14:17:00,
2013-05-22 10:32:00,58.4,56.0,29.91,West,259,0.0,-999.0,92,-99.99,,,0.00,weatherlink.com 1.10,2013-05-22 14:32:00,
2013-05-22 10:47:00,59.4,57.0,29.91,West,259,0.0,-999.0,91,-99.99,,,0.00,weatherlink.com 1.10,2013-05-22 14:47:00,
2013-05-22 11:02:00,59.9,57.0,29.91,West,259,0.0,-999.0,89,-99.99,,,0.00,weatherlink.com 1.10,2013-05-22 15:02:00,
2013-05-22 11:17:00,59.8,57.0,29.92,WSW,258,0.0,-999.0,89,-99.99,,,0.00,weatherlink.com 1.10,2013-05-22 15:17:00,
2013-05-22 11:32:00,60.3,57.0,29.92,WSW,258,1.0,-999.0,89,-99.99,,,0.00,weatherlink.com 1.10,2013-05-22 15:32:00,
2013-05-22 11:47:00,60.3,57.0,29.92,WSW,258,0.0,-999.0,90,-99.99,,,0.00,weatherlink.com 1.10,2013-05-22 15:47:00,
2013-05-22 12:02:00,60.4,58.0,29.92,SSW,212,3.0,-999.0,90,-99.99,,,0.00,weatherlink.com 1.10,2013-05-22 16:02:00,
2013-05-22 12:17:00,61.4,58.0,29.92,SSW,212,0.0,-999.0,89,-99.99,,,0.00,weatherlink.com 1.10,2013-05-22 16:17:00,
2013-05-22 12:32:00,62.1,59.0,29.92,SW,229,0.0,-999.0,88,-99.99,,,0.00,weatherlink.com 1.10,2013-05-22 16:32:00,
2013-05-22 12:47:00,61.9,59.0,29.92,SW,231,0.0,-999.0,89,-99.99,,,0.00,weatherlink.com 1.10,2013-05-22 16:47:00,
2013-05-22 13:02:00,62.7,59.0,29.92,SW,224,1.0,-999.0,88,-99.99,,,0.00,weatherlink.com 1.10,2013-05-22 17:02:00,
2013-05-22 13:17:00,63.6,60.0,29.91,SW,224,0.0,-999.0,88,-99.99,,,0.00,weatherlink.com 1.10,2013-05-22 17:17:00,
2013-05-22 13:32:00,64.5,60.0,29.91,SW,224,0.0,-999.0,85,-99.99,,,0.00,weatherlink.com 1.10,2013-05-22 17:32:00,
2013-05-22 13:47:00,65.6,61.0,29.90,SW,214,0.0,-999.0,85,-99.99,,,0.00,weatherlink.com 1.10,2013-05-22 17:47:00,
2013-05-22 14:02:00,66.4,61.0,29.90,NE,46,0.0,-999.0,82,-99.99,,,0.00,weatherlink.com 1.10,2013-05-22 18:02:00,
2013-05-22 14:17:00,65.7,61.0,29.89,NE,36,0.0,-999.0,85,-99.99,,,0.00,weatherlink.com 1.10,2013-05-22 18:17:00,
2013-05-22 14:32:00,67.3,62.0,29.89,NE,36,0.0,-999.0,83,-99.99,,,0.00,weatherlink.com 1.10,2013-05-22 18:32:00,
2013-05-22 14:47:00,67.8,62.0,29.89,NE,36,0.0,-999.0,81,-99.99,,,0.00,weatherlink.com 1.10,2013-05-22 18:47:00,
2013-05-22 15:02:00,67.6,62.0,29.89,NE,37,0.0,-999.0,82,-99.99,,,0.00,weatherlink.com 1.10,2013-05-22 19:02:00,
2013-05-22 15:17:00,67.2,62.0,29.89,NE,37,0.0,-999.0,83,-99.99,,,0.00,weatherlink.com 1.10,2013-05-22 19:17:00,
2013-05-22 15:32:00,66.6,62.0,29.89,NE,37,0.0,-999.0,85,-99.99,,,0.00,weatherlink.com 1.10,2013-05-22 19:32:00,
2013-05-22 15:47:00,63.6,59.0,29.89,NE,36,0.0,-999.0,84,-99.99,,,0.00,weatherlink.com 1.10,2013-05-22 19:47:00,
2013-05-22 16:02:00,62.5,59.0,29.89,NE,44,0.0,-999.0,87,-99.99,,,0.01,weatherlink.com 1.10,2013-05-22 20:02:00,
2013-05-22 16:17:00,62.7,59.0,29.89,NE,38,0.0,-999.0,87,-99.99,,,0.01,weatherlink.com 1.10,2013-05-22 20:17:00,
2013-05-22 16:32:00,63.2,59.0,29.89,NNE,27,0.0,-999.0,86,-99.99,,,0.01,weatherlink.com 1.10,2013-05-22 20:32:00,
2013-05-22 16:47:00,62.8,58.0,29.89,WSW,250,1.0,-999.0,85,-99.99,,,0.01,weatherlink.com 1.10,2013-05-22 20:47:00,
2013-05-22 17:02:00,61.7,58.0,29.88,NE,46,0.0,-999.0,86,-99.99,,,0.01,weatherlink.com 1.10,2013-05-22 21:02:00,
2013-05-22 17:17:00,61.1,57.0,29.88,NE,38,2.0,-999.0,87,-99.99,,,0.01,weatherlink.com 1.10,2013-05-22 21:17:00,
2013-05-22 17:32:00,60.5,57.0,29.88,NNE,33,0.0,-999.0,87,-99.99,,,0.01,weatherlink.com 1.10,2013-05-22 21:32:00,
2013-05-22 17:47:00,59.8,56.0,29.88,NNE,31,0.0,-999.0,88,-99.99,,,0.01,weatherlink.com 1.10,2013-05-22 21:47:00,
2013-05-22 18:02:00,59.0,56.0,29.89,NE,38,1.0,-999.0,88,-99.99,,,0.01,weatherlink.com 1.10,2013-05-22 22:02:00,
2013-05-22 18:17:00,58.2,55.0,29.89,NE,38,0.0,-999.0,90,-99.99,,,0.01,weatherlink.com 1.10,2013-05-22 22:17:00,
2013-05-22 18:32:00,57.8,55.0,29.90,North,11,0.0,-999.0,90,-99.99,,,0.01,weatherlink.com 1.10,2013-05-22 22:32:00,
2013-05-22 18:47:00,57.5,55.0,29.90,North,11,0.0,-999.0,90,-99.99,,,0.01,weatherlink.com 1.10,2013-05-22 22:47:00,
2013-05-22 19:02:00,57.2,55.0,29.92,North,11,0.0,-999.0,91,-99.99,,,0.01,weatherlink.com 1.10,2013-05-22 23:02:00,
2013-05-22 19:17:00,56.8,55.0,29.91,NNW,340,0.0,-999.0,92,-99.99,,,0.01,weatherlink.com 1.10,2013-05-22 23:17:00,
2013-05-22 19:32:00,56.2,54.0,29.92,NNW,340,0.0,-999.0,93,-99.99,,,0.01,weatherlink.com 1.10,2013-05-22 23:32:00,
2013-05-22 19:47:00,55.9,55.0,29.92,NNW,340,0.0,-999.0,95,-99.99,,,0.03,weatherlink.com 1.10,2013-05-22 23:47:00,
2013-05-22 20:02:00,55.5,54.0,29.91,NNW,340,0.0,-999.0,95,-99.99,,,0.03,weatherlink.com 1.10,2013-05-23 00:02:00,
2013-05-22 20:17:00,55.4,54.0,29.92,NNW,340,0.0,-999.0,96,-99.99,,,0.03,weatherlink.com 1.10,2013-05-23 00:17:00,
2013-05-22 20:32:00,55.1,54.0,29.93,NNW,340,0.0,-999.0,96,-99.99,,,0.03,weatherlink.com 1.10,2013-05-23 00:32:00,
2013-05-22 20:47:00,55.0,54.0,29.92,NNW,340,2.0,-999.0,97,-99.99,,,0.03,weatherlink.com 1.10,2013-05-23 00:47:00,
2013-05-22 21:02:00,54.4,54.0,29.93,NNW,340,0.0,-999.0,97,-99.99,,,0.03,weatherlink.com 1.10,2013-05-23 01:02:00,
2013-05-22 21:17:00,54.2,53.0,29.93,NNW,340,0.0,-999.0,97,-99.99,,,0.03,weatherlink.com 1.10,2013-05-23 01:17:00,
2013-05-22 21:32:00,54.0,53.0,29.93,NNW,340,0.0,-999.0,97,-99.99,,,0.03,weatherlink.com 1.10,2013-05-23 01:32:00,
2013-05-22 21:47:00,54.0,53.0,29.94,NNW,340,0.0,-999.0,97,-99.99,,,0.03,weatherlink.com 1.10,2013-05-23 01:47:00,
2013-05-22 22:02:00,53.9,53.0,29.94,NNW,340,1.0,-999.0,97,-99.99,,,0.03,weatherlink.com 1.10,2013-05-23 02:02:00,
2013-05-22 22:17:00,53.6,53.0,29.94,NE,49,0.0,-999.0,98,-99.99,,,0.03,weatherlink.com 1.10,2013-05-23 02:17:00,
2013-05-22 22:33:00,53.5,53.0,29.94,NE,49,0.0,-999.0,98,-99.99,,,0.03,weatherlink.com 1.10,2013-05-23 02:33:00,
2013-05-22 22:48:00,53.7,53.0,29.94,NE,49,0.0,-999.0,98,-99.99,,,0.03,weatherlink.com 1.10,2013-05-23 02:48:00,
2013-05-22 23:03:00,53.6,53.0,29.93,NE,49,0.0,-999.0,98,-99.99,,,0.04,weatherlink.com 1.10,2013-05-23 03:03:00,
2013-05-22 23:18:00,53.5,53.0,29.93,NE,49,0.0,-999.0,98,-99.99,,,0.04,weatherlink.com 1.10,2013-05-23 03:18:00,
2013-05-22 23:33:00,53.5,53.0,29.92,NE,49,0.0,-999.0,98,-99.99,,,0.04,weatherlink.com 1.10,2013-05-23 03:33:00,
2013-05-22 23:48:00,53.4,53.0,29.92,NE,49,0.0,-999.0,98,-99.99,,,0.04,weatherlink.com 1.10,2013-05-23 03:48:00,